Weather History for Millville, NJ

Change the Weather History Date:

Thursday, September 5, 2013

  Actual Average Record
Temperature  
Mean Temperature 69 °F -  
Max Temperature 81 °F 80 °F 95 °F (1985)
Min Temperature 57 °F 61 °F 46 °F (1997)
Cooling Degree Days 4    
Growing Degree Days 19 (Base 50)    
Moisture  
Dew Point 59 °F    
Average Humidity 70    
Maximum Humidity 100    
Minimum Humidity 49    
Precipitation  
Precipitation 0.00 in - - ()
Sea Level Pressure  
Sea Level Pressure 30.03 in    
Wind  
Wind Speed 5 mph (NW)    
Max Wind Speed 10 mph    
Max Gust Speed -    
Visibility 9 miles    
Events      
Averages and records for this station are not official NWS values.
T = Trace of Precipitation, MM = Missing Value Source: NWS Daily Summary

Daily Weather History Graph

Daily Weather History Graph

Search for Another Location

Airport:

Trip Planner

Search our weather history database for the weather conditions in past years. The results will help you decide how hot, cold, wet, or windy it might be!

Date:

Astronomy

Sep. 05, 2013 Rise Set
Actual Time 6:32 AM EDT 7:24 PM EDT
Civil Twilight 6:05 AM EDT 7:51 PM EDT
Nautical Twilight 5:32 AM EDT 8:24 PM EDT
Astronomical Twilight 4:59 AM EDT 8:57 PM EDT
Moon 6:41 AM EDT (9/5) 7:15 PM EDT (9/5)
Length of Visible Light 13h 46m
Length of Day
12h 51m
New Moon, 0% of the Moon is Illuminated
Sep 5
New Moon
Sep 12
First Quarter
Sep 19
Full
Sep 26
Last Quarter
Oct 4
New

Hourly Weather History & Observations

Time (EDT) Temp. Heat Index Dew Point Humidity Pressure Visibility Wind Dir Wind Speed Gust Speed Precip Events Conditions
12:54 AM 57.9 °F - 57.0 °F 97% 30.02 in 10.0 mi Calm Calm - N/A   Clear
1:54 AM 59.0 °F - 57.9 °F 96% 30.01 in 10.0 mi West 4.6 mph - N/A   Clear
2:54 AM 63.0 °F - 61.0 °F 93% 30.01 in 10.0 mi West 4.6 mph - N/A   Clear
3:54 AM 61.0 °F - 60.1 °F 97% 30.00 in 10.0 mi West 4.6 mph - N/A   Clear
4:54 AM 60.1 °F - 59.0 °F 96% 30.01 in 6.0 mi West 4.6 mph - N/A   Clear
5:54 AM 57.9 °F - 57.9 °F 100% 30.01 in 5.0 mi West 4.6 mph - N/A   Clear
6:54 AM 60.1 °F - 59.0 °F 96% 30.01 in 4.0 mi West 5.8 mph - N/A   Clear
7:54 AM 66.9 °F - 64.0 °F 90% 30.02 in 10.0 mi West 4.6 mph - N/A   Clear
8:54 AM 72.0 °F - 64.0 °F 76% 30.02 in 10.0 mi West 8.1 mph - N/A   Clear
9:54 AM 75.9 °F - 62.1 °F 62% 30.02 in 10.0 mi WNW 10.4 mph - N/A   Clear
10:54 AM 78.1 °F - 62.1 °F 58% 30.02 in 10.0 mi NW 9.2 mph - N/A   Clear
11:54 AM 80.1 °F 81.2 °F 62.1 °F 54% 30.01 in 10.0 mi NNW 5.8 mph - N/A   Partly Cloudy
12:54 PM 81.0 °F 82.5 °F 64.0 °F 56% 30.00 in 10.0 mi WNW 10.4 mph - N/A   Scattered Clouds
1:54 PM 80.1 °F 81.5 °F 63.0 °F 56% 30.01 in 10.0 mi WNW 10.4 mph - N/A   Mostly Cloudy
2:54 PM 78.1 °F - 64.0 °F 62% 30.00 in 10.0 mi WNW 5.8 mph - N/A   Overcast
3:54 PM 80.1 °F 81.5 °F 63.0 °F 56% 29.99 in 10.0 mi NNW 6.9 mph - N/A   Mostly Cloudy
4:54 PM 78.1 °F - 62.1 °F 58% 30.00 in 10.0 mi NNW 5.8 mph - N/A   Scattered Clouds
5:54 PM 77.0 °F - 59.0 °F 54% 30.01 in 10.0 mi North 9.2 mph - N/A   Partly Cloudy
6:54 PM 73.9 °F - 57.0 °F 55% 30.02 in 10.0 mi NNW 4.6 mph - N/A   Clear
7:54 PM 71.1 °F - 55.0 °F 57% 30.05 in 10.0 mi NNE 9.2 mph - N/A   Clear
8:54 PM 69.1 °F - 48.9 °F 49% 30.08 in 10.0 mi NNE 9.2 mph - N/A   Clear
9:54 PM 68.0 °F - 48.0 °F 49% 30.10 in 10.0 mi NNE 10.4 mph - N/A   Mostly Cloudy
10:54 PM 66.0 °F - 46.9 °F 50% 30.12 in 10.0 mi NE 6.9 mph - N/A   Mostly Cloudy
11:54 PM 63.0 °F - 46.9 °F 56% 30.13 in 10.0 mi NE 5.8 mph - N/A   Clear